Weather History for KGZH - December, 2013

Change the Weather History Date:

Wednesday, December 4, 2013

  Actual Average (KPRN) Record (KPRN)
Temperature  
Mean Temperature 72 °F -  
Max Temperature 79 °F 62 °F 78 °F (2014)
Min Temperature 66 °F 39 °F 20 °F (1989)
Cooling Degree Days 8    
Growing Degree Days 22 (Base 50)    
Moisture  
Dew Point 67 °F    
Average Humidity 88    
Maximum Humidity 94    
Minimum Humidity 66    
Precipitation  
Precipitation 0.51 in - - ()
Sea Level Pressure  
Sea Level Pressure 29.95 in    
Wind  
Wind Speed 6 mph (South)    
Max Wind Speed 17 mph    
Max Gust Speed 22 mph    
Visibility 6 miles    
Events Fog , Rain    
Averages and records for this station are not official NWS values.
T = Trace of Precipitation, MM = Missing Value Source: NWS Daily Summary

Daily Weather History Graph

Daily Weather History Graph

Search for Another Location

Airport or City:

Trip Planner

Search our weather history database for the weather conditions in past years. The results will help you decide how hot, cold, wet, or windy it might be!

Date:

Astronomy

Dec. 04, 2013 Rise Set
Actual Time 6:32 AM CST 4:44 PM CST
Civil Twilight 6:05 AM CST 5:11 PM CST
Nautical Twilight 5:35 AM CST 5:41 PM CST
Astronomical Twilight 5:06 AM CST 6:10 PM CST
Moon 8:02 AM CST (12/4) 6:51 PM CST (12/4)
Length of Visible Light 11h 05m
Length of Day
10h 12m
Waxing Crescent, 4% of the Moon is Illuminated
Dec 4
Waxing Crescent
Dec 9
First Quarter
Dec 17
Full
Dec 25
Last Quarter
Jan 1
New

Hourly Weather History & Observations

Time (CST) Temp. Dew Point Humidity Pressure Visibility Wind Dir Wind Speed Gust Speed Precip Events Conditions
12:05 AM 68.0 °F 64.0 °F 87% 29.89 in 10.0 mi South 5.8 mph - N/A   Overcast
12:53 AM 68.0 °F 64.0 °F 87% 29.89 in 9.0 mi SSW 6.9 mph - N/A   Overcast
1:53 AM 68.0 °F 64.9 °F 90% 29.91 in 7.0 mi SSW 6.9 mph - N/A   Overcast
2:36 AM 68.0 °F 64.9 °F 90% 29.91 in 5.0 mi South 8.1 mph - N/A   Overcast
2:53 AM 68.0 °F 64.9 °F 90% 29.90 in 4.0 mi SSW 8.1 mph - N/A   Overcast
3:33 AM 66.9 °F 64.9 °F 93% 29.90 in 2.0 mi South 8.1 mph - N/A   Overcast
3:51 AM 66.2 °F 64.4 °F 94% 29.90 in 1.5 mi South 6.9 mph - N/A   Overcast
3:53 AM 66.9 °F 64.9 °F 93% 29.90 in 1.5 mi South 6.9 mph - N/A   Overcast
4:10 AM 66.9 °F 64.9 °F 93% 29.91 in 0.8 mi South 5.8 mph - N/A   Overcast
4:35 AM 66.9 °F 64.9 °F 93% 29.91 in 1.2 mi South 4.6 mph - N/A   Overcast
4:53 AM 66.0 °F 64.0 °F 93% 29.91 in 1.2 mi SSE 4.6 mph - N/A   Overcast
5:22 AM 66.0 °F 64.0 °F 93% 29.93 in 2.5 mi SSE 4.6 mph - N/A   Overcast
5:45 AM 66.0 °F 64.0 °F 93% 29.94 in 1.2 mi SE 3.5 mph - N/A   Overcast
5:53 AM 66.0 °F 64.0 °F 93% 29.93 in 1.2 mi Calm Calm - N/A   Overcast
6:51 AM 66.2 °F 64.4 °F 94% 29.95 in 0.5 mi SE 3.5 mph - N/A Fog Fog
6:53 AM 66.0 °F 64.0 °F 93% 29.95 in 0.5 mi SE 3.5 mph - N/A Fog Fog
7:53 AM 66.9 °F 64.9 °F 93% 29.97 in 0.2 mi SE 3.5 mph - N/A Fog Fog
8:53 AM 68.0 °F 66.0 °F 93% 30.00 in 0.2 mi SSE 4.6 mph - N/A Fog Fog
9:17 AM 69.1 °F 66.9 °F 93% 30.00 in 2.0 mi Variable 3.5 mph - N/A   Overcast
9:26 AM 69.1 °F 66.9 °F 93% 30.00 in 4.0 mi South 4.6 mph - N/A   Overcast
9:53 AM 70.0 °F 66.9 °F 90% 30.00 in 6.0 mi SSE 3.5 mph - N/A   Overcast
10:17 AM 71.1 °F 66.9 °F 87% 30.00 in 8.0 mi South 8.1 mph - N/A   Overcast
10:25 AM 73.0 °F 66.9 °F 81% 30.00 in 8.0 mi SSW 5.8 mph - N/A   Overcast
10:43 AM 73.9 °F 68.0 °F 82% 30.00 in 9.0 mi South 4.6 mph - N/A   Overcast
10:51 AM 73.4 °F 68.0 °F 83% 29.99 in 9.0 mi SW 3.5 mph - N/A   Overcast
10:53 AM 73.9 °F 68.0 °F 82% 29.99 in 9.0 mi Calm Calm - N/A   Overcast
11:04 AM 73.9 °F 66.9 °F 79% 29.99 in 9.0 mi Calm Calm - N/A   Mostly Cloudy
11:18 AM 75.0 °F 66.9 °F 76% 29.97 in 10.0 mi WSW 5.8 mph - N/A   Mostly Cloudy
11:53 AM 79.0 °F 66.9 °F 66% 29.94 in 10.0 mi WSW 8.1 mph - N/A   Partly Cloudy
12:27 PM 77.0 °F 66.9 °F 71% 29.94 in 9.0 mi SSW 8.1 mph - N/A   Overcast
12:39 PM 73.0 °F 66.9 °F 81% 29.94 in 2.0 mi SSW 9.2 mph - 0.04 in Rain Rain
12:46 PM 71.1 °F 66.9 °F 87% 29.94 in 1.5 mi South 8.1 mph - 0.09 in Rain Heavy Rain
12:53 PM 71.1 °F 66.9 °F 87% 29.94 in 1.0 mi South 17.3 mph 21.9 mph 0.22 in Rain Heavy Rain
1:00 PM 70.0 °F 66.0 °F 87% 29.95 in 0.5 mi South 17.3 mph - 0.18 in Fog , Rain Heavy Rain
1:10 PM 69.1 °F 66.0 °F 90% 29.95 in 1.0 mi SSW 8.1 mph 21.9 mph 0.27 in Rain Heavy Rain
1:16 PM 69.1 °F 66.0 °F 90% 29.94 in 3.0 mi South 6.9 mph - 0.27 in Rain Light Rain
1:53 PM 71.1 °F 66.9 °F 87% 29.91 in 10.0 mi South 4.6 mph - 0.28 in   Overcast
2:46 PM 72.0 °F 66.9 °F 84% 29.94 in 10.0 mi South 11.5 mph - N/A   Overcast
2:53 PM 72.0 °F 66.9 °F 84% 29.93 in 10.0 mi SSE 8.1 mph - N/A   Overcast
3:10 PM 72.0 °F 68.0 °F 87% 29.93 in 10.0 mi South 6.9 mph - N/A   Overcast
3:20 PM 72.0 °F 68.0 °F 87% 29.94 in 10.0 mi SSE 9.2 mph - N/A   Overcast
3:53 PM 72.0 °F 66.9 °F 84% 29.93 in 10.0 mi SSE 9.2 mph - N/A   Mostly Cloudy
4:21 PM 71.1 °F 66.9 °F 87% 29.93 in 10.0 mi SSE 9.2 mph - N/A   Overcast
4:53 PM 71.1 °F 68.0 °F 90% 29.93 in 9.0 mi South 6.9 mph - N/A   Overcast
5:04 PM 71.1 °F 68.0 °F 90% 29.94 in 9.0 mi South 8.1 mph - N/A   Overcast
5:53 PM 71.1 °F 68.0 °F 90% 29.94 in 8.0 mi SSE 6.9 mph - N/A   Overcast
6:53 PM 71.1 °F 68.0 °F 90% 29.95 in 10.0 mi South 10.4 mph - N/A   Overcast
7:44 PM 71.1 °F 68.0 °F 90% 29.98 in 10.0 mi SSE 8.1 mph - N/A   Overcast
7:53 PM 71.1 °F 68.0 °F 90% 29.98 in 10.0 mi South 8.1 mph - N/A   Overcast
8:27 PM 71.1 °F 68.0 °F 90% 29.99 in 10.0 mi SSE 5.8 mph - N/A   Overcast
8:41 PM 71.1 °F 68.0 °F 90% 29.99 in 10.0 mi SSE 4.6 mph - N/A   Overcast
8:53 PM 71.1 °F 68.0 °F 90% 29.98 in 9.0 mi SE 3.5 mph - N/A   Overcast
9:07 PM 70.0 °F 68.0 °F 93% 29.99 in 9.0 mi SE 3.5 mph - 0.00 in   Overcast
9:24 PM 70.0 °F 68.0 °F 93% 29.99 in 7.0 mi Calm Calm - 0.00 in Rain Light Rain
9:53 PM 71.1 °F 68.0 °F 90% 29.99 in 6.0 mi SE 9.2 mph - 0.01 in Rain Light Rain
10:06 PM 71.1 °F 68.0 °F 90% 30.00 in 9.0 mi SSE 6.9 mph - 0.00 in   Overcast
10:13 PM 71.1 °F 68.0 °F 90% 30.00 in 10.0 mi SSE 8.1 mph - 0.00 in   Overcast
10:23 PM 71.1 °F 68.0 °F 90% 30.00 in 9.0 mi SSE 5.8 mph - 0.00 in   Overcast
10:29 PM 71.1 °F 68.0 °F 90% 30.00 in 9.0 mi South 6.9 mph - 0.00 in   Overcast
10:53 PM 71.1 °F 68.0 °F 90% 30.00 in 10.0 mi South 4.6 mph - 0.00 in   Overcast
11:53 PM 70.0 °F 68.0 °F 93% 30.00 in 8.0 mi South 3.5 mph - 0.00 in Rain Light Rain